Satellite: HRBE Catalog number: 37855 Epoch time: 13345.81163696 Element set: 662 Inclination: 101.7063 deg RA of node: 282.7698 deg Eccentricity: 0.0228089 Arg of perigee: 236.2424 deg Mean anomaly: 148.4586 deg Mean motion: 14.86348779 rev/day Decay rate: 9.134e-05 rev/day^2 Epoch rev: 11481 Checksum: 343
Satellite: RS-39 Catalog number: 38051 Epoch time: 13346.79531375 Element set: 57 Inclination: 051.6340 deg RA of node: 064.9155 deg Eccentricity: 0.0008069 Arg of perigee: 196.8125 deg Mean anomaly: 252.2682 deg Mean motion: 15.39652811 rev/day Decay rate: 4.1865e-04 rev/day^2 Epoch rev: 10522 Checksum: 312
Satellite: E-STAR Catalog number: 38079 Epoch time: 13346.15483006 Element set: 672 Inclination: 069.4758 deg RA of node: 109.3311 deg Eccentricity: 0.0531210 Arg of perigee: 258.0802 deg Mean anomaly: 096.0640 deg Mean motion: 14.68289157 rev/day Decay rate: 8.4889e-04 rev/day^2 Epoch rev: 9565 Checksum: 326
Satellite: GOLIAT Catalog number: 38085 Epoch time: 13346.74606775 Element set: 620 Inclination: 069.4755 deg RA of node: 111.7632 deg Eccentricity: 0.0543418 Arg of perigee: 259.3250 deg Mean anomaly: 094.6337 deg Mean motion: 14.65270182 rev/day Decay rate: 8.3798e-04 rev/day^2 Epoch rev: 9563 Checksum: 332
Satellite: HORYU-2 Catalog number: 38340 Epoch time: 13346.09454124 Element set: 696 Inclination: 098.2409 deg RA of node: 295.5463 deg Eccentricity: 0.0013631 Arg of perigee: 051.3172 deg Mean anomaly: 308.9257 deg Mean motion: 14.71515022 rev/day Decay rate: 3.070e-05 rev/day^2 Epoch rev: 8427 Checksum: 288
Satellite: RS-40 Catalog number: 38736 Epoch time: 13346.37589011 Element set: 448 Inclination: 082.4821 deg RA of node: 044.0278 deg Eccentricity: 0.0020192 Arg of perigee: 298.4473 deg Mean anomaly: 061.4583 deg Mean motion: 12.42874554 rev/day Decay rate: 1.0e-07 rev/day^2 Epoch rev: 6238 Checksum: 299
Satellite: PROITERES Catalog number: 38756 Epoch time: 13346.74237742 Element set: 385 Inclination: 098.2411 deg RA of node: 066.9588 deg Eccentricity: 0.0011366 Arg of perigee: 257.4506 deg Mean anomaly: 102.5435 deg Mean motion: 14.74503781 rev/day Decay rate: 1.319e-05 rev/day^2 Epoch rev: 6770 Checksum: 313
Satellite: RAIKO Catalog number: 38852 Epoch time: 13218.07382584 Element set: 340 Inclination: 051.6160 deg RA of node: 184.0336 deg Eccentricity: 0.0004489 Arg of perigee: 261.9162 deg Mean anomaly: 100.6538 deg Mean motion: 16.48474690 rev/day Decay rate: 2.4681979e-01 rev/day^2 Epoch rev: 4784 Checksum: 326
Satellite: BEESAT-3 Catalog number: 39134 Epoch time: 13346.63635436 Element set: 446 Inclination: 064.8697 deg RA of node: 007.5558 deg Eccentricity: 0.0009517 Arg of perigee: 334.3018 deg Mean anomaly: 025.7626 deg Mean motion: 15.02052486 rev/day Decay rate: 8.780e-05 rev/day^2 Epoch rev: 3561 Checksum: 312
Satellite: BEESAT-2 Catalog number: 39136 Epoch time: 13346.44863848 Element set: 435 Inclination: 064.8688 deg RA of node: 008.2327 deg Eccentricity: 0.0009267 Arg of perigee: 332.5533 deg Mean anomaly: 027.5098 deg Mean motion: 15.01832345 rev/day Decay rate: 7.677e-05 rev/day^2 Epoch rev: 3558 Checksum: 328
Satellite: CAPE-2 Catalog number: 39380 Epoch time: 13345.83535986 Element set: 38 Inclination: 040.5158 deg RA of node: 123.4496 deg Eccentricity: 0.0002985 Arg of perigee: 085.6327 deg Mean anomaly: 274.4832 deg Mean motion: 15.21027329 rev/day Decay rate: 6.103e-05 rev/day^2 Epoch rev: 332 Checksum: 294
Satellite: TRLBLAZER Catalog number: 39382 Epoch time: 13346.35185866 Element set: 34 Inclination: 040.5047 deg RA of node: 120.3003 deg Eccentricity: 0.0000735 Arg of perigee: 069.6696 deg Mean anomaly: 290.4291 deg Mean motion: 15.22294992 rev/day Decay rate: 4.5648e-04 rev/day^2 Epoch rev: 339 Checksum: 298
Satellite: TECHEDST3 Catalog number: 39415 Epoch time: 13346.75484684 Element set: 48 Inclination: 051.6504 deg RA of node: 302.8341 deg Eccentricity: 0.0004337 Arg of perigee: 104.3637 deg Mean anomaly: 324.5009 deg Mean motion: 15.60002844 rev/day Decay rate: 3.24721e-03 rev/day^2 Epoch rev: 348 Checksum: 276
Satellite: ZACUBE-1 Catalog number: 39417 Epoch time: 13346.75027956 Element set: 69 Inclination: 097.7980 deg RA of node: 058.6939 deg Eccentricity: 0.0064494 Arg of perigee: 126.9929 deg Mean anomaly: 233.7213 deg Mean motion: 14.77189506 rev/day Decay rate: 2.795e-05 rev/day^2 Epoch rev: 316 Checksum: 354
Satellite: TRITON-1 Catalog number: 39427 Epoch time: 13345.70430492 Element set: 17 Inclination: 097.7889 deg RA of node: 057.2754 deg Eccentricity: 0.0120850 Arg of perigee: 126.3359 deg Mean anomaly: 234.9115 deg Mean motion: 14.64621373 rev/day Decay rate: 2.371e-05 rev/day^2 Epoch rev: 294 Checksum: 301
Satellite: DELFIN3XT Catalog number: 39428 Epoch time: 13345.94570508 Element set: 19 Inclination: 097.7869 deg RA of node: 057.4215 deg Eccentricity: 0.0132304 Arg of perigee: 125.2104 deg Mean anomaly: 236.1606 deg Mean motion: 14.62061841 rev/day Decay rate: 3.775e-05 rev/day^2 Epoch rev: 296 Checksum: 295
Satellite: GOMX-1 Catalog number: 39430 Epoch time: 13346.78594679 Element set: 38 Inclination: 097.7829 deg RA of node: 058.0151 deg Eccentricity: 0.0159435 Arg of perigee: 122.3944 deg Mean anomaly: 239.2795 deg Mean motion: 14.56089424 rev/day Decay rate: 2.547e-05 rev/day^2 Epoch rev: 308 Checksum: 335
Satellite: $50SAT Catalog number: 39436 Epoch time: 13346.85654423 Element set: 16 Inclination: 097.8003 deg RA of node: 059.0200 deg Eccentricity: 0.0031451 Arg of perigee: 140.9825 deg Mean anomaly: 219.3964 deg Mean motion: 14.84094617 rev/day Decay rate: 1.6786e-04 rev/day^2 Epoch rev: 318 Checksum: 302
/EX